Theta_e
311 314 313 310 310 309 309 309 309 310 310 309 309 309 310 310 310 310 311 314 315 314 314 316 314 315 317 317 318 320 316 317 321 321 324 323 319 322 329 344 348 347 345 342 346
306 311 315 311 310 309 309 309 309 309 310 309 309 309 309 310 310 311 316 322 319 316 312 316 317 317 317 320 319 316 314 318 318 322 322 322 319 320 350 349 348 347 345 344 345
306 306 312 314 310 309 309 308 308 309 309 308 308 309 309 309 311 316 323 321 320 316 313 317 317 317 319 323 323 319 316 317 320 323 323 321 321 320 349 349 348 345 344 344 344
309 306 307 314 312 309 309 308 308 308 308 308 308 309 309 309 312 324 319 317 315 318 318 318 318 319 318 320 324 322 321 323 324 325 324 320 321 321 342 347 347 346 344 343 344
310 309 306 308 315 310 309 309 308 308 308 308 308 309 309 310 312 317 320 319 319 320 319 318 318 319 318 316 318 319 321 322 324 324 324 322 320 318 328 346 347 344 343 342 343
311 310 309 306 313 313 309 309 308 308 308 308 309 309 308 311 317 323 319 320 318 318 318 318 319 321 320 318 316 317 317 319 320 320 322 321 318 325 334 349 345 344 343 342 344
311 311 311 307 308 315 311 309 309 309 309 308 308 308 308 312 319 322 323 323 319 317 316 320 321 321 320 317 320 319 317 314 314 317 317 320 316 325 345 347 346 344 343 342 341
310 311 311 310 307 312 315 310 309 309 309 309 310 310 313 319 320 324 320 322 317 316 316 319 320 321 321 320 315 316 314 315 315 315 316 318 314 332 346 347 344 344 344 343 344
310 310 311 311 308 308 315 316 314 310 311 312 315 314 317 321 323 324 320 318 316 316 315 319 318 318 316 313 312 311 316 315 316 314 315 315 324 338 344 344 343 343 343 345 346
311 310 310 311 310 308 311 316 316 314 314 316 318 318 321 321 325 324 322 320 318 317 317 316 317 312 309 310 314 314 316 317 317 317 316 324 329 341 342 342 340 341 341 343 345
312 311 310 311 311 309 310 313 316 322 319 320 319 319 320 325 326 324 323 323 321 319 316 317 315 315 315 311 312 315 316 316 317 316 315 325 335 341 340 339 337 339 341 341 341
311 312 311 311 311 310 309 312 316 320 318 320 320 321 323 323 323 323 324 323 319 317 317 317 316 316 315 315 317 319 318 316 314 317 318 328 334 337 335 335 337 338 340 340 338
309 311 312 310 311 311 309 311 314 316 318 321 322 323 325 325 323 323 321 323 318 317 317 316 318 319 319 319 321 318 314 314 316 320 325 330 330 334 334 333 334 335 338 338 338
308 310 312 311 312 312 315 320 314 317 321 324 326 325 325 325 324 325 323 322 319 319 317 318 318 320 320 320 317 314 314 314 314 315 321 320 334 333 332 331 330 331 335 334 333
307 309 311 312 311 312 317 320 314 322 325 325 327 327 326 324 323 324 325 322 319 321 318 319 324 321 321 319 316 315 314 314 313 310 312 312 318 326 330 332 328 327 332 332 331
306 308 311 313 313 313 311 311 320 324 328 328 328 328 325 325 325 321 323 321 321 319 321 320 325 323 320 317 315 313 312 310 308 309 311 310 309 310 330 335 328 325 330 330 328
307 309 311 313 313 312 315 319 320 327 324 329 330 328 328 325 325 320 319 319 319 320 321 323 325 323 317 316 314 311 311 311 312 312 310 310 310 311 323 328 328 325 328 329 327
307 310 313 318 314 316 314 318 322 322 324 327 329 329 329 325 326 322 319 318 318 320 319 322 325 324 323 318 315 313 311 311 315 312 311 311 315 321 326 326 328 325 328 328 326
307 311 314 319 313 312 318 320 320 322 326 331 329 328 328 325 324 328 327 324 322 319 321 324 325 317 318 315 314 314 311 310 309 310 313 311 323 328 325 324 324 324 326 327 325
307 312 321 320 316 312 319 320 322 323 327 327 328 329 328 324 324 324 326 327 327 321 320 321 318 317 316 316 314 312 309 311 307 314 315 312 314 323 327 325 324 324 324 325 325
310 316 321 315 313 320 319 319 321 322 323 328 327 328 329 327 324 322 327 326 325 321 316 313 314 316 316 316 314 313 311 308 307 309 312 311 310 313 325 324 324 323 324 325 325
313 314 318 315 317 315 317 319 322 322 325 327 327 328 327 326 324 324 323 321 321 316 317 314 311 313 316 315 314 314 312 311 311 314 309 310 312 315 322 323 323 324 324 325 326
315 317 320 317 320 318 318 320 322 323 325 325 326 326 325 324 323 323 324 321 318 318 317 314 311 313 314 311 314 318 317 312 309 309 312 313 313 314 323 323 324 323 324 325 325
316 317 319 318 317 318 318 320 319 318 323 324 324 323 321 322 319 321 323 323 319 321 317 316 311 312 312 312 313 315 317 315 313 314 315 313 314 315 316 318 321 321 324 325 326
316 315 317 318 317 318 316 318 319 318 320 320 320 322 320 320 321 321 321 318 318 317 315 312 316 317 315 316 316 316 317 317 316 315 316 316 315 321 318 317 315 320 319 322 323
311 313 316 317 317 316 315 315 317 316 320 321 320 321 318 319 320 320 320 319 317 316 315 310 314 315 317 317 318 318 320 319 319 322 317 317 322 317 318 319 318 318 318 316 318
311 312 315 317 315 316 317 316 318 316 317 320 319 318 319 319 319 320 320 319 318 315 313 311 313 313 316 318 319 318 321 321 320 319 320 321 319 315 315 316 318 317 318 317 317
Wind_Speed
19 20 20 19 18 17 15 15 14 14 14 15 14 14 15 16 19 23 25 18 12 16 13 12 19 19 14 13 11 7 3 4 4 7 6 9 8 19 11 24 22 20 13 26 34
19 19 20 19 18 17 15 14 13 13 13 13 13 13 14 16 20 25 16 13 13 14 25 19 21 19 10 10 10 6 4 9 6 3 4 14 6 19 7 19 8 12 15 35 37
20 19 19 19 18 16 15 13 12 12 11 11 11 11 11 14 18 6 4 8 15 19 19 15 12 18 9 8 9 7 6 5 6 20 14 9 18 12 16 1 13 31 39 39 37
22 20 18 18 18 16 15 13 12 11 11 10 10 10 10 8 5 0 3 1 16 20 21 15 15 12 6 6 11 3 13 15 15 28 13 4 9 10 6 13 23 35 42 41 38
24 22 19 17 17 16 14 13 11 10 10 9 9 9 9 6 21 9 7 1 17 21 21 18 18 9 6 7 7 5 6 13 24 24 26 14 9 11 3 15 24 32 38 41 38
24 23 20 17 16 15 14 13 11 10 9 9 9 10 8 6 6 4 15 14 16 19 20 20 14 17 5 4 7 6 11 20 20 28 18 6 6 4 6 21 31 32 28 28 29
25 24 21 17 15 14 13 11 11 10 9 8 9 11 13 21 11 6 7 14 16 16 19 23 9 10 5 3 11 11 5 7 9 14 9 12 3 3 19 28 27 23 20 21 19
26 25 23 20 15 13 12 11 10 9 9 8 9 11 11 9 11 15 10 13 15 13 15 20 18 8 6 7 4 2 3 0 6 5 8 13 5 4 25 34 22 22 21 23 22
27 26 24 21 16 12 12 11 10 10 10 10 9 8 12 7 13 14 10 11 13 12 13 7 6 8 4 4 4 5 3 4 7 9 3 5 5 4 19 33 23 25 26 28 26
28 28 26 22 18 12 11 11 12 12 10 6 7 5 12 10 12 16 13 12 8 8 6 8 7 3 2 4 5 5 3 3 4 3 3 4 4 10 14 29 24 26 29 30 27
29 28 28 23 19 12 10 10 4 3 10 11 6 11 9 3 5 17 18 17 14 4 5 6 3 6 10 6 6 1 2 4 14 9 6 9 8 9 10 19 21 24 29 27 24
29 29 29 24 22 15 12 9 5 1 11 20 24 28 27 18 3 16 20 12 6 5 3 3 6 11 7 6 4 3 3 9 6 2 7 9 6 6 5 1 16 27 25 23 20
30 29 29 26 24 20 15 14 6 7 4 12 18 16 15 13 13 16 17 23 5 7 6 7 7 7 5 3 3 4 4 3 2 3 12 11 4 2 3 6 9 15 20 19 16
31 31 29 26 18 11 8 11 6 6 3 6 5 7 10 9 5 21 20 16 2 7 7 6 8 8 5 5 8 5 5 5 7 5 5 3 3 3 2 1 2 10 18 17 15
32 31 31 27 22 22 5 3 6 6 3 3 4 4 12 12 5 15 23 15 8 5 7 8 3 3 2 6 8 6 2 6 5 6 4 6 5 2 7 4 7 10 17 17 15
34 32 33 28 22 13 10 8 10 5 5 4 3 0 6 6 7 7 23 16 6 4 2 8 2 2 6 3 4 9 7 10 6 4 3 4 5 3 6 16 8 12 20 20 18
35 32 33 26 14 7 13 9 4 4 2 1 2 3 0 1 3 7 9 6 6 4 4 3 4 3 6 7 5 6 6 4 3 2 5 2 3 7 6 7 15 21 25 22 19
36 33 28 15 12 17 7 4 4 5 5 2 2 4 4 8 3 7 8 7 2 4 3 5 3 2 2 2 7 1 7 5 5 4 4 1 5 5 7 17 20 22 29 25 21
36 30 19 4 17 22 10 3 8 5 2 1 1 5 1 4 4 5 4 6 6 7 7 4 4 2 3 4 6 3 3 4 7 4 2 3 5 2 5 6 20 26 31 30 24
36 29 10 3 19 22 4 5 4 5 2 2 1 2 3 3 5 6 2 2 2 6 4 7 4 1 4 4 7 6 7 4 3 4 4 5 5 5 5 8 10 16 24 29 26
26 13 15 7 22 8 4 6 4 12 6 4 3 3 1 3 3 4 4 4 8 4 8 6 3 4 1 1 7 2 3 7 5 4 5 2 6 6 11 14 18 18 25 34 32
13 4 8 15 3 1 3 6 8 7 5 3 4 5 5 5 2 5 0 1 6 3 5 3 6 4 3 3 1 3 5 5 5 5 2 4 6 3 8 12 20 23 32 39 36
16 6 9 5 2 3 5 4 6 4 4 3 3 5 4 5 1 3 7 5 3 3 7 6 3 4 6 6 5 5 4 5 5 3 5 5 6 3 1 9 23 26 32 40 40
6 3 8 8 5 2 5 3 4 6 3 4 2 4 4 3 1 4 6 4 2 4 10 7 4 6 6 6 4 4 3 5 5 3 3 5 5 9 11 8 8 22 30 38 44
7 3 5 3 5 7 4 4 3 2 3 6 6 4 4 3 4 5 4 2 7 6 5 4 4 2 3 6 3 3 3 5 5 4 5 5 4 3 9 11 14 4 8 18 25
6 5 9 4 10 4 3 6 5 4 3 3 6 1 2 5 4 3 2 1 2 4 3 3 1 3 1 2 4 3 2 2 3 3 2 6 3 2 8 17 23 20 10 6 20
10 5 3 6 6 3 6 5 7 2 9 4 4 5 4 3 3 5 4 2 4 7 3 4 6 3 4 1 4 3 5 4 4 6 3 1 2 8 7 13 14 19 18 18 10
Wind_Direction
329 330 330 326 321 317 309 299 284 270 263 261 265 273 278 283 286 287 279 284 268 224 203 174 166 180 179 183 185 181 79 226 222 156 254 306 356 342 183 151 158 184 196 170 159
329 328 329 328 324 319 313 304 291 275 264 263 267 274 282 291 295 286 300 275 235 207 203 187 175 178 174 183 195 160 150 222 210 225 253 301 334 312 126 133 126 140 164 160 163
334 328 326 328 326 320 315 307 296 281 268 264 267 272 284 299 310 284 286 268 212 186 183 178 184 175 172 169 188 192 206 231 254 278 290 291 320 328 140 116 197 144 151 166 171
341 333 326 325 326 322 317 308 298 284 274 268 269 272 280 290 268 149 14 56 169 168 176 180 171 173 145 182 195 190 225 241 265 269 272 256 325 324 188 192 177 167 166 172 180
346 339 330 322 323 322 315 308 298 290 280 272 270 272 278 258 253 247 270 213 166 172 182 180 176 155 162 187 169 205 246 242 247 264 266 274 282 251 226 179 170 151 169 176 184
348 343 336 323 318 320 316 309 302 293 284 276 273 273 266 248 273 261 230 221 209 190 189 187 189 181 199 207 172 216 220 251 269 267 262 236 283 228 76 156 157 159 164 176 186
348 345 339 328 313 314 316 309 301 293 284 276 269 270 263 256 282 247 214 218 217 212 197 189 156 176 183 244 254 255 274 309 252 251 241 200 245 110 140 147 153 161 168 167 175
348 346 342 333 316 308 312 311 300 289 280 273 273 272 257 270 254 220 214 208 219 219 207 203 204 239 241 268 339 225 84 15 274 148 254 154 221 143 151 153 143 152 155 158 150
346 344 341 334 321 303 300 304 301 286 277 275 269 244 267 228 219 187 195 198 197 201 208 138 199 243 229 135 5 3 220 205 310 199 110 108 135 153 149 144 131 144 148 145 136
344 342 339 334 325 302 290 294 291 276 257 251 239 281 240 249 218 201 201 195 166 192 217 225 215 193 55 109 214 222 219 256 222 224 141 97 105 143 159 140 138 138 139 140 142
342 342 338 332 324 306 278 282 275 259 226 220 238 234 287 21 203 197 207 214 221 222 169 189 134 216 225 172 190 56 325 290 283 244 125 146 138 156 157 140 136 144 147 141 134
339 339 338 330 322 302 268 231 236 26 294 272 262 261 259 250 306 214 210 183 158 215 99 3 236 224 213 192 116 257 310 287 283 336 98 133 84 88 71 15 151 151 155 149 138
336 334 336 330 319 297 266 257 271 272 271 286 247 243 251 227 229 231 208 199 165 178 186 175 237 120 177 228 126 274 169 222 137 46 64 102 54 57 10 83 147 160 159 152 149
333 331 330 328 317 299 291 126 32 291 31 277 218 238 187 172 216 218 214 190 208 191 163 216 258 235 176 211 152 187 213 101 68 61 130 59 193 290 190 212 204 161 159 155 153
329 328 325 320 295 278 247 324 340 143 347 264 179 172 165 169 141 198 210 197 179 182 120 237 271 187 145 215 147 178 76 63 101 94 76 355 91 256 119 248 217 195 172 165 158
324 325 318 313 289 294 232 226 152 56 253 310 340 10 152 197 191 136 188 205 221 155 212 247 295 163 178 99 109 129 70 39 40 28 35 240 125 245 199 210 185 197 182 168 156
320 321 314 298 273 187 166 165 60 161 304 347 350 340 342 178 211 141 168 174 169 113 210 284 216 116 100 81 33 88 69 27 35 29 202 76 64 240 240 258 200 184 175 171 166
321 320 314 287 210 172 150 73 157 227 243 182 128 349 50 23 352 192 147 196 140 90 103 141 331 136 199 187 171 42 134 148 177 178 228 63 226 244 252 260 203 173 175 174 172
326 322 316 277 190 188 173 124 193 219 261 49 195 88 171 5 43 40 50 189 173 159 169 142 190 78 179 162 136 185 84 165 101 16 62 237 289 308 23 95 146 157 176 181 179
331 323 324 209 175 161 102 205 208 217 117 90 113 19 128 56 22 26 57 304 249 164 138 215 118 203 189 115 42 132 152 78 16 149 241 288 280 231 195 176 168 177 180 183 185
335 325 345 149 151 174 158 216 240 265 264 161 171 95 294 91 113 15 254 275 277 317 145 139 106 239 77 94 162 69 86 50 112 128 171 228 264 219 195 189 187 187 187 189 192
349 344 11 137 58 58 154 192 213 235 244 152 125 109 148 188 202 168 268 229 270 170 158 126 128 136 168 339 131 97 145 134 130 224 210 166 270 250 222 193 182 188 194 201 200
333 306 30 276 47 336 303 274 215 207 159 121 161 167 178 154 199 155 227 236 4 203 159 183 28 76 359 1 10 103 129 108 116 87 194 150 262 325 3 173 191 192 198 203 204
354 2 13 64 50 43 328 319 360 355 76 124 176 101 125 52 127 266 199 293 31 42 78 90 102 146 176 191 156 131 104 95 104 114 200 223 265 5 357 340 282 214 208 208 208
15 26 6 343 4 348 323 308 316 91 59 34 23 140 143 102 46 0 31 298 50 18 52 85 121 121 128 136 136 158 173 144 168 192 158 262 148 336 317 311 315 281 256 234 228
40 12 352 314 313 250 325 350 30 21 72 27 114 123 165 139 167 130 10 147 188 31 66 26 118 83 169 217 143 126 29 211 86 25 117 127 152 331 326 17 34 26 358 321 244
21 16 337 324 333 18 353 329 351 30 28 69 120 92 103 159 173 208 235 287 230 142 120 92 128 94 225 195 106 4 343 359 91 52 1 136 345 336 336 349 7 9 15 25 345